Tillbaka till svenska Fidonet
English   Information   Debug  
FILM   0/18
FNEWS_PUBLISH   4983
FN_SYSOP   42232
FN_SYSOP_OLD1   71952
FTP_FIDO   0/2
FTSC_PUBLIC   0/13976
FUNNY   0/4886
GENEALOGY.EUR   0/71
GET_INFO   105
GOLDED   0/408
HAM   5362/16713
HOLYSMOKE   0/6791
HOT_SITES   0/1
HTMLEDIT   0/71
HUB203   466
HUB_100   264
HUB_400   39
HUMOR   0/29
IC   0/2851
INTERNET   0/424
INTERUSER   0/3
IP_CONNECT   719
JAMNNTPD   0/233
JAMTLAND   0/47
KATTY_KORNER   0/41
LAN   0/16
LINUX-USER   0/19
LINUXHELP   0/1155
LINUX   0/22385
LINUX_BBS   0/957
mail   18.68
mail_fore_ok   249
MENSA   0/341
MODERATOR   0/102
MONTE   0/992
MOSCOW_OKLAHOMA   0/1245
MUFFIN   0/783
MUSIC   0/321
N203_STAT   938
N203_SYSCHAT   313
NET203   321
NET204   69
NET_DEV   0/10
NORD.ADMIN   0/101
NORD.CHAT   0/2572
NORD.FIDONET   189
NORD.HARDWARE   0/28
NORD.KULTUR   0/114
NORD.PROG   0/32
NORD.SOFTWARE   0/88
NORD.TEKNIK   0/58
NORD   0/453
OCCULT_CHAT   0/93
OS2BBS   0/787
OS2DOSBBS   0/580
OS2HW   0/42
OS2INET   0/37
OS2LAN   0/134
OS2PROG   0/36
OS2REXX   0/113
OS2USER-L   207
OS2   0/4831
OSDEBATE   0/18996
PASCAL   0/490
PERL   0/457
PHP   0/45
POINTS   0/405
POLITICS   0/29554
POL_INC   0/14731
PSION   103
R20_ADMIN   1133
R20_AMATORRADIO   0/2
R20_BEST_OF_FIDONET   16
R20_CHAT   0/897
R20_DEPP   0/3
R20_DEV   400
R20_ECHO2   1889
R20_ECHOPRES   0/35
R20_ESTAT   0/719
R20_FIDONETPROG...
...RAM.MYPOINT
  0/2
R20_FIDONETPROGRAM   0/22
R20_FIDONET   0/248
R20_FILEFIND   0/24
R20_FILEFOUND   0/22
R20_HIFI   0/3
R20_INFO2   3781
R20_INTERNET   0/12940
R20_INTRESSE   0/60
R20_INTR_KOM   0/99
R20_KANDIDAT.CHAT   42
R20_KANDIDAT   28
R20_KOM_DEV   112
R20_KONTROLL   0/13360
R20_KORSET   0/18
R20_LOKALTRAFIK   0/24
R20_MODERATOR   0/1852
R20_NC   76
R20_NET200   245
R20_NETWORK.OTH...
...ERNETS
  0/13
R20_OPERATIVSYS...
...TEM.LINUX
  0/44
R20_PROGRAMVAROR   0/1
R20_REC2NEC   534
R20_SFOSM   0/341
R20_SF   0/108
R20_SPRAK.ENGLISH   0/1
R20_SQUISH   107
R20_TEST   2
R20_WORST_OF_FIDONET   20
RAR   0/9
RA_MULTI   106
RA_UTIL   0/162
REGCON.EUR   0/2069
REGCON   0/13
SCIENCE   0/1206
SF   0/239
SHAREWARE_SUPPORT   0/5146
SHAREWRE   0/14
SIMPSONS   0/169
STATS_OLD1   0/2539.065
STATS_OLD2   0/2530
STATS_OLD3   0/2395.095
STATS_OLD4   0/1692.25
SURVIVOR   0/495
SYSOPS_CORNER   0/3
SYSOP   0/84
TAGLINES   0/112
TEAMOS2   0/4530
TECH   0/2617
TEST.444   0/105
TRAPDOOR   0/19
TREK   0/755
TUB   0/290
UFO   0/40
UNIX   0/1316
USA_EURLINK   0/102
USR_MODEMS   0/1
VATICAN   0/2740
VIETNAM_VETS   0/14
VIRUS   0/378
VIRUS_INFO   0/201
VISUAL_BASIC   0/473
WHITEHOUSE   0/5187
WIN2000   0/101
WIN32   0/30
WIN95   0/4291
WIN95_OLD1   0/70272
WINDOWS   0/1517
WWB_SYSOP   0/419
WWB_TECH   143/810
ZCC-PUBLIC   0/1
ZEC   4

 
4DOS   0/134
ABORTION   0/7
ALASKA_CHAT   0/506
ALLFIX_FILE   0/1313
ALLFIX_FILE_OLD1   0/7997
ALT_DOS   0/152
AMATEUR_RADIO   0/1039
AMIGASALE   0/14
AMIGA   0/331
AMIGA_INT   0/1
AMIGA_PROG   0/20
AMIGA_SYSOP   0/26
ANIME   0/15
ARGUS   0/924
ASCII_ART   0/340
ASIAN_LINK   0/651
ASTRONOMY   0/417
AUDIO   0/92
AUTOMOBILE_RACING   0/105
BABYLON5   0/17862
BAG   135
BATPOWER   164/361
BBBS.ENGLISH   0/382
BBSLAW   0/109
BBS_ADS   0/5290
BBS_INTERNET   0/507
BIBLE   0/3563
BINKD   0/1119
BINKLEY   0/215
BLUEWAVE   0/2173
CABLE_MODEMS   0/25
CBM   0/46
CDRECORD   0/66
CDROM   0/20
CLASSIC_COMPUTER   0/378
COMICS   0/15
CONSPRCY   0/899
COOKING   42003
COOKING_OLD1   0/24719
COOKING_OLD2   0/40862
COOKING_OLD3   0/37489
COOKING_OLD4   31648/35496
COOKING_OLD5   9370
C_ECHO   0/189
C_PLUSPLUS   0/31
DIRTY_DOZEN   0/201
DOORGAMES   0/2333
DOS_INTERNET   0/196
duplikat   6102
ECHOLIST   15335/18295
EC_SUPPORT   31/318
ELECTRONICS   0/359
ELEKTRONIK.GER   1534
ENET.LINGUISTIC   0/13
ENET.POLITICS   0/4
ENET.SOFT   0/11701
ENET.SYSOP   34332
ENET.TALKS   0/32
ENGLISH_TUTOR   0/2000
EVOLUTION   0/1335
FDECHO   0/217
FDN_ANNOUNCE   6997/7068
FIDONEWS   25122
FIDONEWS_OLD1   0/49742
FIDONEWS_OLD2   0/35949
FIDONEWS_OLD3   0/30874
FIDONEWS_OLD4   0/37224
FIDO_SYSOP   12973
FIDO_UTIL   0/180
FILEFIND   0/209
FILEGATE   0/212
Möte HAM, 16713 texter
 lista första sista föregående nästa
Text 3642, 880 rader
Skriven 2010-05-06 23:00:27 av Amsat List (1:323/120.0)
Ärende: [keps]  orb10126.amsa
=============================
[keps]  orb10126.amsa

Return-Path: <keps-bounces@amsat.org>
X-Rcpt: craig.healy@chowda.com
X-UIDL: 1273200442.44544

SB KEPS @ AMSAT  $ORB10126.O
Orbital Elements  10126.OSCAR

HR AMSAT ORBITAL ELEMENTS FOR OSCAR SATELLITES
FROM WA5QGD FORT WORTH,TX May 6, 2010
Send Subscribe/unsubscribe to KEPS at http://www.amsat.org/mailman/listinfo/kep
BID: ORB10126.O
TO ALL RADIO AMATEURS BT

Satellite: AO-07
Catalog number: 07530
Epoch time:      10126.46400216
Element set:     769
Inclination:      101.4025 deg
RA of node:       143.9479 deg
Eccentricity:    0.0012158
Arg of perigee:   357.4033 deg
Mean anomaly:     002.6979 deg
Mean motion:   12.53578321 rev/day
Decay rate:       -2.7e-07 rev/day^2
Epoch rev:           62322
Checksum:              275

Satellite: FO-29
Catalog number: 24278
Epoch time:      10126.39484705
Element set:     304
Inclination:      098.5153 deg
RA of node:       321.3011 deg
Eccentricity:    0.0349940
Arg of perigee:   232.2061 deg
Mean anomaly:     124.6919 deg
Mean motion:   13.52949438 rev/day
Decay rate:       -6.7e-07 rev/day^2
Epoch rev:           67745
Checksum:              312

Satellite: SO-33
Catalog number: 25509
Epoch time:      10126.74147376
Element set:     705
Inclination:      031.4353 deg
RA of node:       022.8913 deg
Eccentricity:    0.0354486
Arg of perigee:   287.3658 deg
Mean anomaly:     068.8519 deg
Mean motion:   14.28302621 rev/day
Decay rate:        2.7e-07 rev/day^2
Epoch rev:           60212
Checksum:              298

Satellite: RS-22
Catalog number: 27939
Epoch time:      10126.62078325
Element set:     156
Inclination:      097.8984 deg
RA of node:       353.8583 deg
Eccentricity:    0.0013432
Arg of perigee:   186.4872 deg
Mean anomaly:     173.6158 deg
Mean motion:   14.63412966 rev/day
Decay rate:       1.35e-06 rev/day^2
Epoch rev:           35287
Checksum:              335

Satellite: VO-52
Catalog number: 28650
Epoch time:      10126.53540586
Element set:     496
Inclination:      097.6945 deg
RA of node:       181.5868 deg
Eccentricity:    0.0028037
Arg of perigee:   054.8542 deg
Mean anomaly:     305.5865 deg
Mean motion:   14.81740678 rev/day
Decay rate:       7.38e-06 rev/day^2
Epoch rev:           27052
Checksum:              340

Satellite: SO-67
Catalog number: 35870
Epoch time:      10126.67628413
Element set:     700
Inclination:      097.3351 deg
RA of node:       176.9017 deg
Eccentricity:    0.0001660
Arg of perigee:   223.0467 deg
Mean anomaly:     283.2495 deg
Mean motion:   15.20867965 rev/day
Decay rate:      1.492e-05 rev/day^2
Epoch rev:            3514
Checksum:              306

Satellite: HO-68
Catalog number: 36122
Epoch time:      10126.59571712
Element set:     278
Inclination:      100.4723 deg
RA of node:       187.4408 deg
Eccentricity:    0.0007916
Arg of perigee:   071.4311 deg
Mean anomaly:     288.7667 deg
Mean motion:   13.16280519 rev/day
Decay rate:       -4.5e-07 rev/day^2
Epoch rev:            1874
Checksum:              302

/EX
SB KEPS @ AMSAT  $ORB10126.D
Orbital Elements  10126.MICROS

HR AMSAT ORBITAL ELEMENTS FOR THE MICROSATS
FROM WA5QGD FORT WORTH,TX May 6, 2010
Send Subscribe/unsubscribe to KEPS at http://www.amsat.org/mailman/listinfo/kep
BID: ORB10126.D
TO ALL RADIO AMATEURS BT

Satellite: UO-11
Catalog number: 14781
Epoch time:      10126.23470569
Element set:     232
Inclination:      098.0577 deg
RA of node:       177.8404 deg
Eccentricity:    0.0009895
Arg of perigee:   019.2472 deg
Mean anomaly:     340.9148 deg
Mean motion:   14.79797313 rev/day
Decay rate:       1.41e-06 rev/day^2
Epoch rev:           40560
Checksum:              310

Satellite: AO-16
Catalog number: 20439
Epoch time:      10126.05165107
Element set:     887
Inclination:      098.3291 deg
RA of node:       085.6249 deg
Eccentricity:    0.0010118
Arg of perigee:   295.2944 deg
Mean anomaly:     064.7200 deg
Mean motion:   14.31859375 rev/day
Decay rate:        2.7e-07 rev/day^2
Epoch rev:            5935
Checksum:              302

Satellite: LO-19
Catalog number: 20442
Epoch time:      10125.98627788
Element set:     797
Inclination:      098.2899 deg
RA of node:       091.5363 deg
Eccentricity:    0.0010932
Arg of perigee:   288.4752 deg
Mean anomaly:     071.5264 deg
Mean motion:   14.32091690 rev/day
Decay rate:       1.52e-06 rev/day^2
Epoch rev:            5951
Checksum:              330

Satellite: AO-27
Catalog number: 22825
Epoch time:      10126.01046604
Element set:     521
Inclination:      098.4833 deg
RA of node:       075.0588 deg
Eccentricity:    0.0008923
Arg of perigee:   039.4531 deg
Mean anomaly:     320.7319 deg
Mean motion:   14.29296117 rev/day
Decay rate:        9.4e-07 rev/day^2
Epoch rev:           86602
Checksum:              295

Satellite: IO-26
Catalog number: 22826
Epoch time:      10126.78338843
Element set:     259
Inclination:      098.4771 deg
RA of node:       076.4280 deg
Eccentricity:    0.0009530
Arg of perigee:   031.9386 deg
Mean anomaly:     328.2377 deg
Mean motion:   14.29551481 rev/day
Decay rate:        2.7e-07 rev/day^2
Epoch rev:           86624
Checksum:              326

Satellite: GO-32
Catalog number: 25397
Epoch time:      10126.19888030
Element set:     178
Inclination:      098.3129 deg
RA of node:       135.9625 deg
Eccentricity:    0.0001890
Arg of perigee:   061.5178 deg
Mean anomaly:     298.6183 deg
Mean motion:   14.23177485 rev/day
Decay rate:       1.04e-06 rev/day^2
Epoch rev:           61407
Checksum:              315

